Year,Month,Day,Hour,Minute,Value (Times are PST for temperature in C)
2013,04,13,00,00,2.00
2013,04,13,00,01,2.00
2013,04,13,00,02,2.00
2013,04,13,00,03,1.90
2013,04,13,00,04,1.90
2013,04,13,00,05,1.90
2013,04,13,00,06,1.90
2013,04,13,00,07,1.80
2013,04,13,00,08,1.80
2013,04,13,00,09,1.80
2013,04,13,00,10,1.80
2013,04,13,00,11,1.80
2013,04,13,00,12,1.80
2013,04,13,00,13,1.80
2013,04,13,00,14,1.80
2013,04,13,00,15,1.80
2013,04,13,00,16,1.80
2013,04,13,00,17,1.80
2013,04,13,00,18,1.80
2013,04,13,00,19,1.70
2013,04,13,00,20,1.70
2013,04,13,00,21,1.70
2013,04,13,00,22,1.70
2013,04,13,00,23,1.70
2013,04,13,00,24,1.70
2013,04,13,00,25,1.70
2013,04,13,00,26,1.60
2013,04,13,00,27,1.60
2013,04,13,00,28,1.60
2013,04,13,00,29,1.60
2013,04,13,00,30,1.50
2013,04,13,00,31,1.50
2013,04,13,00,32,1.50
2013,04,13,00,33,1.40
2013,04,13,00,34,1.40
2013,04,13,00,35,1.40
2013,04,13,00,36,1.40
2013,04,13,00,37,1.40
2013,04,13,00,38,1.40
2013,04,13,00,39,1.40
2013,04,13,00,40,1.40
2013,04,13,00,41,1.40
2013,04,13,00,42,1.40
2013,04,13,00,43,1.40
2013,04,13,00,44,1.40
2013,04,13,00,45,1.40
2013,04,13,00,46,1.40
2013,04,13,00,47,1.40
2013,04,13,00,48,1.40
2013,04,13,00,49,1.50
2013,04,13,00,50,1.50
2013,04,13,00,51,1.50
2013,04,13,00,52,1.60
2013,04,13,00,53,1.60
2013,04,13,00,54,1.60
2013,04,13,00,55,1.70
2013,04,13,00,56,1.70
2013,04,13,00,57,1.70
2013,04,13,00,58,1.70
2013,04,13,00,59,1.70
2013,04,13,01,00,1.70
2013,04,13,01,01,1.80
2013,04,13,01,02,1.80
2013,04,13,01,03,1.90
2013,04,13,01,04,2.00
2013,04,13,01,05,2.10
2013,04,13,01,06,2.20
2013,04,13,01,07,2.30
2013,04,13,01,08,2.40
2013,04,13,01,09,2.40
2013,04,13,01,10,2.40
2013,04,13,01,11,2.30
2013,04,13,01,12,2.30
2013,04,13,01,13,2.30
2013,04,13,01,14,2.20
2013,04,13,01,15,2.20
2013,04,13,01,16,2.20
2013,04,13,01,17,2.10
2013,04,13,01,18,2.10
2013,04,13,01,19,2.10
2013,04,13,01,20,2.00
2013,04,13,01,21,2.00
2013,04,13,01,22,1.90
2013,04,13,01,23,1.90
2013,04,13,01,24,1.80
2013,04,13,01,25,1.80
2013,04,13,01,26,1.80
2013,04,13,01,27,1.80
2013,04,13,01,28,1.80
2013,04,13,01,29,1.70
2013,04,13,01,30,1.70
2013,04,13,01,31,1.70
2013,04,13,01,32,1.70
2013,04,13,01,33,1.70
2013,04,13,01,34,1.70
2013,04,13,01,35,1.60
2013,04,13,01,36,1.60
2013,04,13,01,37,1.60
2013,04,13,01,38,1.60
2013,04,13,01,39,1.60
2013,04,13,01,40,1.50
2013,04,13,01,41,1.50
2013,04,13,01,42,1.50
2013,04,13,01,43,1.50
2013,04,13,01,44,1.60
2013,04,13,01,45,1.60
2013,04,13,01,46,1.70
2013,04,13,01,47,1.80
2013,04,13,01,48,1.90
2013,04,13,01,49,1.90
2013,04,13,01,50,2.00
2013,04,13,01,51,2.10
2013,04,13,01,52,2.10
2013,04,13,01,53,2.20
2013,04,13,01,54,2.20
2013,04,13,01,55,2.20
2013,04,13,01,56,2.20
2013,04,13,01,57,2.20
2013,04,13,01,58,2.20
2013,04,13,01,59,2.20
2013,04,13,02,00,2.20
2013,04,13,02,01,2.20
2013,04,13,02,02,2.30
2013,04,13,02,03,2.20
2013,04,13,02,04,2.20
2013,04,13,02,05,2.20
2013,04,13,02,06,2.20
2013,04,13,02,07,2.20
2013,04,13,02,08,2.20
2013,04,13,02,09,2.20
2013,04,13,02,10,2.20
2013,04,13,02,11,2.20
2013,04,13,02,12,2.20
2013,04,13,02,13,2.20
2013,04,13,02,14,2.20
2013,04,13,02,15,2.30
2013,04,13,02,16,2.40
2013,04,13,02,17,2.40
2013,04,13,02,18,2.50
2013,04,13,02,19,2.60
2013,04,13,02,20,2.70
2013,04,13,02,21,2.70
2013,04,13,02,22,2.80
2013,04,13,02,23,2.90
2013,04,13,02,24,2.90
2013,04,13,02,25,3.00
2013,04,13,02,26,3.00
2013,04,13,02,27,3.10
2013,04,13,02,28,3.10
2013,04,13,02,29,3.10
2013,04,13,02,30,3.20
2013,04,13,02,31,3.20
2013,04,13,02,32,3.20
2013,04,13,02,33,3.20
2013,04,13,02,34,3.20
2013,04,13,02,35,3.20
2013,04,13,02,36,3.20
2013,04,13,02,37,3.20
2013,04,13,02,38,3.30
2013,04,13,02,39,3.30
2013,04,13,02,40,3.30
2013,04,13,02,41,3.30
2013,04,13,02,42,3.20
2013,04,13,02,43,3.20
2013,04,13,02,44,3.20
2013,04,13,02,45,3.10
2013,04,13,02,46,3.10
2013,04,13,02,47,3.10
2013,04,13,02,48,3.00
2013,04,13,02,49,3.00
2013,04,13,02,50,3.00
2013,04,13,02,51,2.90
2013,04,13,02,52,2.90
2013,04,13,02,53,2.90
2013,04,13,02,54,2.90
2013,04,13,02,55,2.90
2013,04,13,02,56,3.00
2013,04,13,02,57,3.00
2013,04,13,02,58,3.00
2013,04,13,02,59,3.00
2013,04,13,03,00,3.00
2013,04,13,03,01,3.00
2013,04,13,03,02,3.00
2013,04,13,03,06,3.00
2013,04,13,03,07,3.00
2013,04,13,03,08,3.00
2013,04,13,03,09,3.00
2013,04,13,03,10,3.10
2013,04,13,03,11,3.10
2013,04,13,03,12,3.10
2013,04,13,03,13,3.10
2013,04,13,03,14,3.10
2013,04,13,03,15,3.10
2013,04,13,03,16,3.20
2013,04,13,03,17,3.20
2013,04,13,03,18,3.20
2013,04,13,03,19,3.10
2013,04,13,03,20,3.20
2013,04,13,03,21,3.20
2013,04,13,03,22,3.20
2013,04,13,03,23,3.20
2013,04,13,03,24,3.20
2013,04,13,03,25,3.20
2013,04,13,03,26,3.30
2013,04,13,03,27,3.30
2013,04,13,03,28,3.30
2013,04,13,03,29,3.30
2013,04,13,03,30,3.30
2013,04,13,03,31,3.30
2013,04,13,03,32,3.30
2013,04,13,03,33,3.30
2013,04,13,03,34,3.30
2013,04,13,03,35,3.30
2013,04,13,03,36,3.30
2013,04,13,03,37,3.30
2013,04,13,03,38,3.30
2013,04,13,03,39,3.30
2013,04,13,03,40,3.30
2013,04,13,03,41,3.30
2013,04,13,03,42,3.30
2013,04,13,03,43,3.20
2013,04,13,03,44,3.20
2013,04,13,03,45,3.20
2013,04,13,03,46,3.20
2013,04,13,03,47,3.20
2013,04,13,03,48,3.20
2013,04,13,03,49,3.20
2013,04,13,03,50,3.20
2013,04,13,03,51,3.20
2013,04,13,03,52,3.20
2013,04,13,03,53,3.10
2013,04,13,03,54,3.10
2013,04,13,03,55,3.10
2013,04,13,03,56,3.10
2013,04,13,03,57,3.10
2013,04,13,03,58,3.10
2013,04,13,03,59,3.00
2013,04,13,04,00,3.00
2013,04,13,04,01,3.00
2013,04,13,04,02,3.00
2013,04,13,04,03,3.00
2013,04,13,04,04,3.00
2013,04,13,04,05,3.00
2013,04,13,04,06,3.00
2013,04,13,04,07,3.00
2013,04,13,04,08,2.90
2013,04,13,04,09,3.00
2013,04,13,04,10,2.90
2013,04,13,04,11,2.90
2013,04,13,04,12,2.90
2013,04,13,04,13,2.90
2013,04,13,04,14,2.90
2013,04,13,04,15,2.90
2013,04,13,04,16,2.90
2013,04,13,04,17,2.90
2013,04,13,04,18,2.90
2013,04,13,04,19,2.90
2013,04,13,04,20,2.90
2013,04,13,04,21,2.90
2013,04,13,04,22,2.90
2013,04,13,04,23,2.90
2013,04,13,04,24,2.90
2013,04,13,04,25,2.90
2013,04,13,04,26,2.90
2013,04,13,04,27,2.90
2013,04,13,04,28,2.90
2013,04,13,04,29,2.90
2013,04,13,04,30,2.90
2013,04,13,04,31,2.90
2013,04,13,04,32,2.90
2013,04,13,04,33,2.90
2013,04,13,04,34,2.90
2013,04,13,04,35,2.90
2013,04,13,04,36,2.90
2013,04,13,04,37,2.90
2013,04,13,04,38,2.90
2013,04,13,04,39,2.90
2013,04,13,04,40,2.90
2013,04,13,04,41,3.00
2013,04,13,04,42,3.00
2013,04,13,04,43,3.00
2013,04,13,04,44,3.00
2013,04,13,04,45,3.00
2013,04,13,04,46,3.10
2013,04,13,04,47,3.10
2013,04,13,04,48,3.10
2013,04,13,04,49,3.20
2013,04,13,04,50,3.20
2013,04,13,04,51,3.20
2013,04,13,04,52,3.20
2013,04,13,04,53,3.20
2013,04,13,04,54,3.30
2013,04,13,04,55,3.30
2013,04,13,04,56,3.30
2013,04,13,04,57,3.30
2013,04,13,04,58,3.30
2013,04,13,04,59,3.30
2013,04,13,05,00,3.30
2013,04,13,05,01,3.30
2013,04,13,05,02,3.30
2013,04,13,05,03,3.30
2013,04,13,05,04,3.30
2013,04,13,05,05,3.30
2013,04,13,05,06,3.30
2013,04,13,05,07,3.30
2013,04,13,05,08,3.30
2013,04,13,05,09,3.30
2013,04,13,05,10,3.30
2013,04,13,05,11,3.30
2013,04,13,05,12,3.30
2013,04,13,05,13,3.30
2013,04,13,05,14,3.30
2013,04,13,05,15,3.30
2013,04,13,05,16,3.30
2013,04,13,05,17,3.30
2013,04,13,05,18,3.30
2013,04,13,05,19,3.30
2013,04,13,05,20,3.30
2013,04,13,05,21,3.30
2013,04,13,05,22,3.30
2013,04,13,05,23,3.30
2013,04,13,05,24,3.30
2013,04,13,05,25,3.30
2013,04,13,05,26,3.30
2013,04,13,05,27,3.30
2013,04,13,05,28,3.30
2013,04,13,05,29,3.30
2013,04,13,05,30,3.30
2013,04,13,05,31,3.30
2013,04,13,05,32,3.40
2013,04,13,05,33,3.40
2013,04,13,05,34,3.50
2013,04,13,05,35,3.50
2013,04,13,05,36,3.50
2013,04,13,05,37,3.60
2013,04,13,05,38,3.60
2013,04,13,05,39,3.70
2013,04,13,05,40,3.70
2013,04,13,05,41,3.70
2013,04,13,05,42,3.70
2013,04,13,05,43,3.80
2013,04,13,05,44,3.80
2013,04,13,05,45,3.80
2013,04,13,05,46,3.80
2013,04,13,05,47,3.80
2013,04,13,05,48,3.80
2013,04,13,05,49,3.80
2013,04,13,05,50,3.80
2013,04,13,05,51,3.80
2013,04,13,05,52,3.80
2013,04,13,05,53,3.80
2013,04,13,05,54,3.80
2013,04,13,05,55,3.80
2013,04,13,05,56,3.80
2013,04,13,05,57,3.70
2013,04,13,05,58,3.70
2013,04,13,05,59,3.70
2013,04,13,06,00,3.60
2013,04,13,06,01,3.60
2013,04,13,06,02,3.60
2013,04,13,06,03,3.50
2013,04,13,06,04,3.50
2013,04,13,06,05,3.40
2013,04,13,06,06,3.30
2013,04,13,06,07,3.30
2013,04,13,06,08,3.30
2013,04,13,06,09,3.20
2013,04,13,06,10,3.20
2013,04,13,06,11,3.10
2013,04,13,06,12,3.10
2013,04,13,06,13,3.10
2013,04,13,06,14,3.10
2013,04,13,06,15,3.00
2013,04,13,06,16,3.00
2013,04,13,06,17,3.00
2013,04,13,06,18,3.00
2013,04,13,06,19,2.90
2013,04,13,06,20,2.90
2013,04,13,06,21,2.90
2013,04,13,06,22,2.90
2013,04,13,06,23,2.90
2013,04,13,06,24,2.90
2013,04,13,06,25,2.90
2013,04,13,06,26,2.90
2013,04,13,06,27,2.90
2013,04,13,06,28,2.90
2013,04,13,06,29,2.90
2013,04,13,06,30,2.90
2013,04,13,06,31,2.90
2013,04,13,06,32,2.80
2013,04,13,06,33,2.80
2013,04,13,06,34,2.80
2013,04,13,06,35,2.80
2013,04,13,06,36,2.80
2013,04,13,06,37,2.80
2013,04,13,06,38,2.80
2013,04,13,06,39,2.80
2013,04,13,06,40,2.80
2013,04,13,06,41,2.80
2013,04,13,06,42,2.80
2013,04,13,06,43,2.80
2013,04,13,06,44,2.80
2013,04,13,06,45,2.80
2013,04,13,06,46,2.80
2013,04,13,06,47,2.80
2013,04,13,06,48,2.80
2013,04,13,06,49,2.80
2013,04,13,06,50,2.80
2013,04,13,06,51,2.80
2013,04,13,06,52,2.80
2013,04,13,06,53,2.80
2013,04,13,06,54,2.70
2013,04,13,06,55,2.70
2013,04,13,06,56,2.70
2013,04,13,06,57,2.70
2013,04,13,06,58,2.70
2013,04,13,06,59,2.70
2013,04,13,07,00,2.70
2013,04,13,07,01,2.70
2013,04,13,07,02,2.70
2013,04,13,07,03,2.70
2013,04,13,07,04,2.70
2013,04,13,07,05,2.70
2013,04,13,07,06,2.70
2013,04,13,07,07,2.70
2013,04,13,07,08,2.70
2013,04,13,07,09,2.60
2013,04,13,07,10,2.60
2013,04,13,07,11,2.60
2013,04,13,07,12,2.60
2013,04,13,07,13,2.60
2013,04,13,07,14,2.60
2013,04,13,07,15,2.50
2013,04,13,07,16,2.50
2013,04,13,07,17,2.50
2013,04,13,07,18,2.40
2013,04,13,07,19,2.40
2013,04,13,07,20,2.40
2013,04,13,07,21,2.40
2013,04,13,07,22,2.40
2013,04,13,07,23,2.40
2013,04,13,07,24,2.40
2013,04,13,07,25,2.40
2013,04,13,07,26,2.40
2013,04,13,07,27,2.40
2013,04,13,07,28,2.40
2013,04,13,07,29,2.30
2013,04,13,07,30,2.30
2013,04,13,07,31,2.30
2013,04,13,07,32,2.30
2013,04,13,07,33,2.20
2013,04,13,07,34,2.10
2013,04,13,07,35,2.00
2013,04,13,07,36,1.90
2013,04,13,07,37,1.90
2013,04,13,07,38,1.80
2013,04,13,07,39,1.80
2013,04,13,07,40,1.80
2013,04,13,07,41,1.70
2013,04,13,07,42,1.70
2013,04,13,07,43,1.70
2013,04,13,07,44,1.70
2013,04,13,07,45,1.70
2013,04,13,07,46,1.70
2013,04,13,07,47,1.70
2013,04,13,07,48,1.70
2013,04,13,07,49,1.70
2013,04,13,07,50,1.70
2013,04,13,07,51,1.70
2013,04,13,07,52,1.70
2013,04,13,07,53,1.70
2013,04,13,07,54,1.70
2013,04,13,07,55,1.70
2013,04,13,07,56,1.70
2013,04,13,07,57,1.70
2013,04,13,07,58,1.70
2013,04,13,07,59,1.70
2013,04,13,08,00,1.70
2013,04,13,08,01,1.70
2013,04,13,08,02,1.70
2013,04,13,08,03,1.70
2013,04,13,08,04,1.70
2013,04,13,08,05,1.70
2013,04,13,08,06,1.80
2013,04,13,08,07,1.80
2013,04,13,08,08,1.80
2013,04,13,08,09,1.80
2013,04,13,08,10,1.80
2013,04,13,08,11,1.80
2013,04,13,08,12,1.80
2013,04,13,08,13,1.80
2013,04,13,08,14,1.90
2013,04,13,08,15,1.90
2013,04,13,08,16,1.90
2013,04,13,08,17,1.90
2013,04,13,08,18,1.90
2013,04,13,08,19,1.90
2013,04,13,08,20,1.90
2013,04,13,08,21,2.00
2013,04,13,08,22,2.00
2013,04,13,08,23,2.00
2013,04,13,08,24,2.00
2013,04,13,08,25,2.00
2013,04,13,08,26,2.00
2013,04,13,08,27,2.00
2013,04,13,08,28,2.00
2013,04,13,08,29,2.10
2013,04,13,08,30,2.10
2013,04,13,08,31,2.10
2013,04,13,08,32,2.10
2013,04,13,08,33,2.10
2013,04,13,08,34,2.10
2013,04,13,08,35,2.10
2013,04,13,08,36,2.10
2013,04,13,08,37,2.10
2013,04,13,08,38,2.10
2013,04,13,08,39,2.10
2013,04,13,08,40,2.20
2013,04,13,08,41,2.20
2013,04,13,08,42,2.20
2013,04,13,08,43,2.20
2013,04,13,08,44,2.20
2013,04,13,08,45,2.20
2013,04,13,08,46,2.30
2013,04,13,08,47,2.30
2013,04,13,08,48,2.30
2013,04,13,08,49,2.30
2013,04,13,08,50,2.30
2013,04,13,08,51,2.30
2013,04,13,08,52,2.30
2013,04,13,08,53,2.30
2013,04,13,08,54,2.30
2013,04,13,08,55,2.30
2013,04,13,08,56,2.30
2013,04,13,08,57,2.30
2013,04,13,08,58,2.40
2013,04,13,08,59,2.40
2013,04,13,09,00,2.40
2013,04,13,09,01,2.40
2013,04,13,09,02,2.40
2013,04,13,09,03,2.40
2013,04,13,09,04,2.50
2013,04,13,09,05,2.50
2013,04,13,09,06,2.50
2013,04,13,09,07,2.50
2013,04,13,09,08,2.50
2013,04,13,09,09,2.60
2013,04,13,09,10,2.60
2013,04,13,09,11,2.60
2013,04,13,09,12,2.60
2013,04,13,09,13,2.60
2013,04,13,09,14,2.60
2013,04,13,09,15,2.60
2013,04,13,09,16,2.50
2013,04,13,09,17,2.50
2013,04,13,09,18,2.50
2013,04,13,09,19,2.60
2013,04,13,09,20,2.60
2013,04,13,09,21,2.60
2013,04,13,09,22,2.60
2013,04,13,09,23,2.70
2013,04,13,09,24,2.70
2013,04,13,09,25,2.70
2013,04,13,09,26,2.70
2013,04,13,09,27,2.70
2013,04,13,09,28,2.70
2013,04,13,09,29,2.70
2013,04,13,09,30,2.70
2013,04,13,09,31,2.70
2013,04,13,09,32,2.70
2013,04,13,09,33,2.70
2013,04,13,09,34,2.70
2013,04,13,09,35,2.70
2013,04,13,09,36,2.70
2013,04,13,09,37,2.70
2013,04,13,09,38,2.80
2013,04,13,09,39,2.70
2013,04,13,09,40,2.70
2013,04,13,09,41,2.70
2013,04,13,09,42,2.70
2013,04,13,09,43,2.70
2013,04,13,09,44,2.70
2013,04,13,09,45,2.80
2013,04,13,09,46,2.80
2013,04,13,09,47,2.80
2013,04,13,09,48,2.80
2013,04,13,09,49,2.80
2013,04,13,09,50,2.80
2013,04,13,09,51,2.80
2013,04,13,09,52,2.80
2013,04,13,09,53,2.90
2013,04,13,09,54,2.90
2013,04,13,09,55,2.90
2013,04,13,09,56,2.90
2013,04,13,09,57,3.00
2013,04,13,09,58,3.00
2013,04,13,09,59,3.10
2013,04,13,10,00,3.10
2013,04,13,10,01,3.10
2013,04,13,10,02,3.10
2013,04,13,10,03,3.20
2013,04,13,10,04,3.20
2013,04,13,10,05,3.20
2013,04,13,10,06,3.20
2013,04,13,10,07,3.30
2013,04,13,10,08,3.30
2013,04,13,10,09,3.30
2013,04,13,10,10,3.30
2013,04,13,10,11,3.30
2013,04,13,10,12,3.40
2013,04,13,10,13,3.40
2013,04,13,10,14,3.40
2013,04,13,10,15,3.50
2013,04,13,10,16,3.50
2013,04,13,10,17,3.60
2013,04,13,10,18,3.70
2013,04,13,10,19,3.70
2013,04,13,10,20,3.70
2013,04,13,10,21,3.70
2013,04,13,10,22,3.70
2013,04,13,10,23,3.80
2013,04,13,10,24,3.80
2013,04,13,10,25,3.80
2013,04,13,10,26,3.80
2013,04,13,10,27,3.90
2013,04,13,10,28,4.00
2013,04,13,10,29,4.10
2013,04,13,10,30,4.20
2013,04,13,10,31,4.20
2013,04,13,10,32,4.30
2013,04,13,10,33,4.30
2013,04,13,10,34,4.40
2013,04,13,10,35,4.40
2013,04,13,10,36,4.40
2013,04,13,10,37,4.40
2013,04,13,10,38,4.50
2013,04,13,10,39,4.50
2013,04,13,10,40,4.60
2013,04,13,10,41,4.70
2013,04,13,10,42,4.70
2013,04,13,10,43,4.80
2013,04,13,10,44,4.80
2013,04,13,10,45,4.80
2013,04,13,10,46,4.90
2013,04,13,10,47,4.90
2013,04,13,10,48,4.90
2013,04,13,10,49,5.00
2013,04,13,10,50,5.00
2013,04,13,10,51,5.00
2013,04,13,10,52,5.00
2013,04,13,10,53,5.00
2013,04,13,10,54,5.00
2013,04,13,10,55,5.00
2013,04,13,10,56,4.90
2013,04,13,10,57,5.00
2013,04,13,10,58,5.00
2013,04,13,10,59,5.00
2013,04,13,11,00,5.10
2013,04,13,11,01,5.10
2013,04,13,11,02,5.10
2013,04,13,11,03,5.20
2013,04,13,11,04,5.20
2013,04,13,11,05,5.30
2013,04,13,11,06,5.30
2013,04,13,11,07,5.40
2013,04,13,11,08,5.50
2013,04,13,11,09,5.60
2013,04,13,11,10,5.70
2013,04,13,11,11,5.80
2013,04,13,11,12,5.90
2013,04,13,11,13,6.00
2013,04,13,11,14,6.10
2013,04,13,11,15,6.20
2013,04,13,11,16,6.20
2013,04,13,11,17,6.30
2013,04,13,11,18,6.40
2013,04,13,11,19,6.40
2013,04,13,11,20,6.40
2013,04,13,11,21,6.50
2013,04,13,11,22,6.50
2013,04,13,11,23,6.60
2013,04,13,11,24,6.60
2013,04,13,11,25,6.70
2013,04,13,11,26,6.80
2013,04,13,11,27,6.90
2013,04,13,11,28,6.90
2013,04,13,11,29,7.00
2013,04,13,11,30,7.00
2013,04,13,11,31,7.10
2013,04,13,11,32,7.10
2013,04,13,11,33,7.20
2013,04,13,11,34,7.20
2013,04,13,11,35,7.20
2013,04,13,11,36,7.20
2013,04,13,11,37,7.20
2013,04,13,11,38,7.30
2013,04,13,11,39,7.30
2013,04,13,11,40,7.30
2013,04,13,11,41,7.20
2013,04,13,11,42,7.20
2013,04,13,11,43,7.10
2013,04,13,11,44,7.20
2013,04,13,11,45,7.20
2013,04,13,11,46,7.20
2013,04,13,11,47,7.20
2013,04,13,11,48,7.20
2013,04,13,11,49,7.20
2013,04,13,11,50,7.20
2013,04,13,11,51,7.30
2013,04,13,11,52,7.30
2013,04,13,11,53,7.40
2013,04,13,11,54,7.60
2013,04,13,11,55,7.70
2013,04,13,11,56,7.80
2013,04,13,11,57,7.90
2013,04,13,11,58,7.90
2013,04,13,11,59,8.00
2013,04,13,12,00,8.00
2013,04,13,12,01,8.10
2013,04,13,12,02,8.10
2013,04,13,12,03,8.00
2013,04,13,12,04,8.00
2013,04,13,12,05,7.90
2013,04,13,12,06,7.90
2013,04,13,12,07,7.80
2013,04,13,12,08,7.90
2013,04,13,12,09,7.90
2013,04,13,12,10,8.10
2013,04,13,12,11,8.10
2013,04,13,12,12,8.20
2013,04,13,12,13,8.20
2013,04,13,12,14,8.20
2013,04,13,12,15,8.30
2013,04,13,12,16,8.40
2013,04,13,12,17,8.50
2013,04,13,12,18,8.60
2013,04,13,12,19,8.60
2013,04,13,12,20,8.60
2013,04,13,12,21,8.60
2013,04,13,12,22,8.50
2013,04,13,12,23,8.50
2013,04,13,12,24,8.60
2013,04,13,12,25,8.60
2013,04,13,12,26,8.60
2013,04,13,12,27,8.60
2013,04,13,12,28,8.60
2013,04,13,12,29,8.70
2013,04,13,12,30,8.70
2013,04,13,12,31,8.70
2013,04,13,12,32,8.70
2013,04,13,12,33,8.60
2013,04,13,12,34,8.50
2013,04,13,12,35,8.50
2013,04,13,12,36,8.50
2013,04,13,12,37,8.50
2013,04,13,12,38,8.40
2013,04,13,12,39,8.40
2013,04,13,12,40,8.40
2013,04,13,12,41,8.40
2013,04,13,12,42,8.30
2013,04,13,12,43,8.30
2013,04,13,12,44,8.30
2013,04,13,12,45,8.30
2013,04,13,12,46,8.30
2013,04,13,12,47,8.30
2013,04,13,12,48,8.30
2013,04,13,12,49,8.30
2013,04,13,12,50,8.30
2013,04,13,12,51,8.30
2013,04,13,12,52,8.30
2013,04,13,12,53,8.30
2013,04,13,12,54,8.30
2013,04,13,12,55,8.30
2013,04,13,12,56,8.40
2013,04,13,12,57,8.40
2013,04,13,12,58,8.40
2013,04,13,12,59,8.40
2013,04,13,13,00,8.40
2013,04,13,13,01,8.40
2013,04,13,13,02,8.30
2013,04,13,13,03,8.30
2013,04,13,13,04,8.30
2013,04,13,13,05,8.30
2013,04,13,13,06,8.30
2013,04,13,13,07,8.30
2013,04,13,13,08,8.30
2013,04,13,13,09,8.40
2013,04,13,13,10,8.40
2013,04,13,13,11,8.50
2013,04,13,13,12,8.50
2013,04,13,13,13,8.40
2013,04,13,13,14,8.20
2013,04,13,13,15,8.10
2013,04,13,13,16,7.90
2013,04,13,13,17,7.80
2013,04,13,13,18,7.80
2013,04,13,13,19,7.80
2013,04,13,13,20,7.80
2013,04,13,13,21,7.80
2013,04,13,13,22,7.70
2013,04,13,13,23,7.70
2013,04,13,13,24,7.60
2013,04,13,13,25,7.60
2013,04,13,13,26,7.60
2013,04,13,13,27,7.60
2013,04,13,13,28,7.70
2013,04,13,13,29,7.70
2013,04,13,13,30,7.70
2013,04,13,13,31,7.70
2013,04,13,13,32,7.70
2013,04,13,13,33,7.70
2013,04,13,13,34,7.80
2013,04,13,13,35,7.90
2013,04,13,13,36,7.90
2013,04,13,13,37,7.90
2013,04,13,13,38,7.80
2013,04,13,13,39,7.80
2013,04,13,13,40,7.80
2013,04,13,13,41,7.80
2013,04,13,13,42,7.90
2013,04,13,13,43,7.90
2013,04,13,13,44,8.00
2013,04,13,13,45,8.00
2013,04,13,13,46,8.10
2013,04,13,13,47,8.20
2013,04,13,13,48,8.20
2013,04,13,13,49,8.30
2013,04,13,13,50,8.40
2013,04,13,13,51,8.50
2013,04,13,13,52,8.60
2013,04,13,13,53,8.70
2013,04,13,13,54,8.70
2013,04,13,13,55,8.70
2013,04,13,13,56,8.60
2013,04,13,13,57,8.60
2013,04,13,13,58,8.50
2013,04,13,13,59,8.50
2013,04,13,14,00,8.50
2013,04,13,14,01,8.40
2013,04,13,14,02,8.40
2013,04,13,14,03,8.40
2013,04,13,14,04,8.40
2013,04,13,14,05,8.40
2013,04,13,14,06,8.50
2013,04,13,14,07,8.50
2013,04,13,14,08,8.60
2013,04,13,14,09,8.60
2013,04,13,14,10,8.60
2013,04,13,14,11,8.70
2013,04,13,14,12,8.70
2013,04,13,14,13,8.80
2013,04,13,14,14,8.80
2013,04,13,14,15,8.90
2013,04,13,14,16,8.90
2013,04,13,14,17,8.90
2013,04,13,14,18,8.90
2013,04,13,14,19,8.90
2013,04,13,14,20,9.00
2013,04,13,14,21,9.10
2013,04,13,14,22,9.20
2013,04,13,14,23,9.20
2013,04,13,14,24,9.30
2013,04,13,14,25,9.30
2013,04,13,14,26,9.30
2013,04,13,14,27,9.30
2013,04,13,14,28,9.30
2013,04,13,14,29,9.20
2013,04,13,14,30,9.20
2013,04,13,14,31,9.30
2013,04,13,14,32,9.30
2013,04,13,14,33,9.40
2013,04,13,14,34,9.50
2013,04,13,14,35,9.60
2013,04,13,14,36,9.50
2013,04,13,14,37,9.50
2013,04,13,14,38,9.40
2013,04,13,14,39,9.40
2013,04,13,14,40,9.40
2013,04,13,14,41,9.40
2013,04,13,14,42,9.40
2013,04,13,14,43,9.40
2013,04,13,14,44,9.40
2013,04,13,14,45,9.40
2013,04,13,14,46,9.40
2013,04,13,14,47,9.50
2013,04,13,14,48,9.50
2013,04,13,14,49,9.50
2013,04,13,14,50,9.40
2013,04,13,14,51,9.40
2013,04,13,14,52,9.40
2013,04,13,14,53,9.40
2013,04,13,14,54,9.40
2013,04,13,14,55,9.20
2013,04,13,14,56,9.10
2013,04,13,14,57,9.10
2013,04,13,14,58,9.00
2013,04,13,14,59,9.10
2013,04,13,15,00,9.00
2013,04,13,15,01,8.90
2013,04,13,15,02,8.90
2013,04,13,15,03,8.70
2013,04,13,15,04,8.60
2013,04,13,15,05,8.50
2013,04,13,15,06,8.50
2013,04,13,15,07,8.50
2013,04,13,15,08,8.40
2013,04,13,15,09,8.40
2013,04,13,15,10,8.40
2013,04,13,15,11,8.40
2013,04,13,15,12,8.50
2013,04,13,15,13,8.50
2013,04,13,15,14,8.60
2013,04,13,15,15,8.60
2013,04,13,15,16,8.70
2013,04,13,15,17,8.70
2013,04,13,15,18,8.80
2013,04,13,15,19,8.80
2013,04,13,15,20,8.80
2013,04,13,15,21,8.80
2013,04,13,15,22,8.80
2013,04,13,15,23,8.80
2013,04,13,15,24,8.80
2013,04,13,15,25,8.80
2013,04,13,15,26,8.80
2013,04,13,15,27,8.80
2013,04,13,15,28,8.90
2013,04,13,15,29,8.90
2013,04,13,15,30,8.90
2013,04,13,15,31,8.80
2013,04,13,15,32,8.80
2013,04,13,15,33,8.80
2013,04,13,15,34,8.70
2013,04,13,15,35,8.70
2013,04,13,15,36,8.70
2013,04,13,15,37,8.70
2013,04,13,15,38,8.70
2013,04,13,15,39,8.70
2013,04,13,15,40,8.70
2013,04,13,15,41,8.70
2013,04,13,15,42,8.60
2013,04,13,15,43,8.50
2013,04,13,15,44,8.50
2013,04,13,15,45,8.40
2013,04,13,15,46,8.40
2013,04,13,15,47,8.40
2013,04,13,15,48,8.40
2013,04,13,15,49,8.40
2013,04,13,15,50,8.40
2013,04,13,15,51,8.30
2013,04,13,15,52,8.20
2013,04,13,15,53,8.20
2013,04,13,15,54,8.10
2013,04,13,15,55,8.10
2013,04,13,15,56,8.10
2013,04,13,15,57,7.90
2013,04,13,15,58,7.60
2013,04,13,15,59,7.50
2013,04,13,16,00,7.30
2013,04,13,16,01,7.20
2013,04,13,16,02,7.10
2013,04,13,16,03,6.90
2013,04,13,16,04,6.80
2013,04,13,16,05,6.70
2013,04,13,16,06,6.70
2013,04,13,16,07,6.60
2013,04,13,16,08,6.60
2013,04,13,16,09,6.60
2013,04,13,16,10,6.60
2013,04,13,16,11,6.60
2013,04,13,16,12,6.60
2013,04,13,16,13,6.60
2013,04,13,16,14,6.70
2013,04,13,16,15,6.70
2013,04,13,16,16,6.70
2013,04,13,16,17,6.70
2013,04,13,16,18,6.70
2013,04,13,16,19,6.80
2013,04,13,16,20,6.80
2013,04,13,16,21,6.90
2013,04,13,16,22,6.90
2013,04,13,16,23,7.00
2013,04,13,16,24,7.00
2013,04,13,16,25,7.10
2013,04,13,16,26,7.10
2013,04,13,16,27,7.10
2013,04,13,16,28,7.10
2013,04,13,16,29,7.10
2013,04,13,16,30,7.10
2013,04,13,16,31,7.10
2013,04,13,16,32,7.10
2013,04,13,16,33,7.10
2013,04,13,16,34,7.10
2013,04,13,16,35,7.20
2013,04,13,16,36,7.20
2013,04,13,16,37,7.20
2013,04,13,16,38,7.20
2013,04,13,16,39,7.30
2013,04,13,16,40,7.30
2013,04,13,16,41,7.30
2013,04,13,16,42,7.30
2013,04,13,16,43,7.30
2013,04,13,16,44,7.30
2013,04,13,16,45,7.30
2013,04,13,16,46,7.30
2013,04,13,16,47,7.30
2013,04,13,16,48,7.40
2013,04,13,16,49,7.40
2013,04,13,16,50,7.50
2013,04,13,16,51,7.50
2013,04,13,16,52,7.60
2013,04,13,16,53,7.60
2013,04,13,16,54,7.70
2013,04,13,16,55,7.70
2013,04,13,16,56,7.80
2013,04,13,16,57,7.90
2013,04,13,16,58,8.00
2013,04,13,16,59,8.10
2013,04,13,17,00,8.20
2013,04,13,17,01,8.30
2013,04,13,17,02,8.30
2013,04,13,17,03,8.30
2013,04,13,17,04,8.40
2013,04,13,17,05,8.30
2013,04,13,17,06,8.30
2013,04,13,17,07,8.30
2013,04,13,17,08,8.30
2013,04,13,17,09,8.40
2013,04,13,17,10,8.40
2013,04,13,17,11,8.40
2013,04,13,17,12,8.40
2013,04,13,17,13,8.40
2013,04,13,17,14,8.40
2013,04,13,17,15,8.50
2013,04,13,17,16,8.50
2013,04,13,17,17,8.50
2013,04,13,17,18,8.50
2013,04,13,17,19,8.60
2013,04,13,17,20,8.60
2013,04,13,17,21,8.70
2013,04,13,17,22,8.60
2013,04,13,17,23,8.60
2013,04,13,17,24,8.50
2013,04,13,17,25,8.50
2013,04,13,17,26,8.50
2013,04,13,17,27,8.50
2013,04,13,17,28,8.40
2013,04,13,17,29,8.40
2013,04,13,17,30,8.30
2013,04,13,17,31,8.30
2013,04,13,17,32,8.30
2013,04,13,17,33,8.20
2013,04,13,17,34,8.20
2013,04,13,17,35,8.10
2013,04,13,17,36,8.10
2013,04,13,17,37,8.00
2013,04,13,17,38,8.00
2013,04,13,17,39,7.90
2013,04,13,17,40,7.90
2013,04,13,17,41,7.90
2013,04,13,17,42,8.00
2013,04,13,17,43,8.00
2013,04,13,17,44,8.10
2013,04,13,17,45,8.00
2013,04,13,17,46,8.00
2013,04,13,17,47,8.00
2013,04,13,17,48,8.00
2013,04,13,17,49,8.00
2013,04,13,17,50,8.00
2013,04,13,17,51,8.00
2013,04,13,17,52,8.10
2013,04,13,17,53,8.10
2013,04,13,17,54,8.10
2013,04,13,17,55,8.20
2013,04,13,17,56,8.20
2013,04,13,17,57,8.20
2013,04,13,17,58,8.20
2013,04,13,17,59,8.20
2013,04,13,18,00,8.20
2013,04,13,18,01,8.20
2013,04,13,18,02,8.20
2013,04,13,18,03,8.20
2013,04,13,18,04,8.20
2013,04,13,18,05,8.20
2013,04,13,18,06,8.20
2013,04,13,18,07,8.30
2013,04,13,18,08,8.30
2013,04,13,18,09,8.40